Location: Garbet
(42.8837°N, 1.2115°E)
Time: 14:01:39
(UTC+00:00)

Aureole 1 Rocket - Pass Details

Date: 13 December 2025
Orbit: 372 x 1167 km, 73.9° (Epoch: 19 January)

Event Time Altitude Azimuth Distance (km) Brightness Sun altitude
Rises 17:43:04 0° 198° (SSW) 2,737 6.9 -14.4°
Reaches altitude 10° 17:45:02 10° 198° (SSW) 1,948 6.1 -14.8°
Maximum altitude 17:49:25 88° 108° (ESE) 719 3.3 -15.5°
Drops below altitude 10° 17:55:03 10° 21° (NNE) 2,490 5.8 -16.5°
Enters shadow 17:55:16 - 21° (NNE) 2,569 5.9 -16.5°
